,,Stat6,,Stat2,,Stat8,,Stat9,,Stat10,,Wind1,,Wind1,
time,status,PA1M_AVG,status,PR1M_SUM,status,RH1M_AVG,status,SR1M_AVG,status,TA1M_AVG,status,W1dAve1m,status,W1sAve1m,
2004-06-07, 00:00:01,VALID,918.477,VALID,0,VALID,100,VALID,0,VALID,19.0565,VALID,59,VALID,0.350962,
2004-06-07, 00:01:00,VALID,918.449,VALID,0,VALID,100,VALID,0,VALID,19.0532,VALID,59,VALID,0.27168,
2004-06-07, 00:02:00,VALID,918.421,VALID,0,VALID,100,VALID,0,VALID,19.0502,VALID,59,VALID,0.121094,
2004-06-07, 00:03:00,VALID,918.383,VALID,0,VALID,100,VALID,0.0169808,VALID,19.053,VALID,59,VALID,0.00272529,
2004-06-07, 00:04:00,VALID,918.366,VALID,0,VALID,100,VALID,0.0169808,VALID,19.0493,VALID,58,VALID,0.48559,
2004-06-07, 00:05:00,VALID,918.37,VALID,0,VALID,100,VALID,-0.0679233,VALID,19.0828,VALID,47,VALID,0.802734,
2004-06-07, 00:06:00,VALID,918.363,VALID,0,VALID,100,VALID,-0.101885,VALID,19.08,VALID,43,VALID,0.646205,
2004-06-07, 00:07:00,VALID,918.352,VALID,0,VALID,100,VALID,-0.0849042,VALID,19.0803,VALID,42,VALID,0.587426,
2004-06-07, 00:08:00,VALID,918.342,VALID,0,VALID,100,VALID,-0.0849042,VALID,19.078,VALID,42,VALID,0.539621,
2004-06-07, 00:09:00,VALID,918.339,VALID,0,VALID,100,VALID,-0.101885,VALID,19.071,VALID,42,VALID,0.367759,
2004-06-07, 00:10:00,VALID,918.341,VALID,0,VALID,100,VALID,-0.101885,VALID,19.0773,VALID,42,VALID,0.308594,
2004-06-07, 00:11:00,VALID,918.342,VALID,0,VALID,100,VALID,-0.101885,VALID,19.0614,VALID,42,VALID,0.324929,
2004-06-07, 00:12:00,VALID,918.347,VALID,0,VALID,100,VALID,-0.101885,VALID,19.0748,VALID,42,VALID,0.203658,
2004-06-07, 00:13:00,VALID,918.354,VALID,0,VALID,100,VALID,-0.101885,VALID,19.0646,VALID,42,VALID,0.116832,
2004-06-07, 00:14:00,VALID,918.356,VALID,0,VALID,100,VALID,-0.101885,VALID,19.0773,VALID,42,VALID,0.00558036,
2004-06-07, 00:15:00,VALID,918.361,VALID,0,VALID,100,VALID,-0.101885,VALID,19.0837,VALID,42,VALID,0.183966,
2004-06-07, 00:16:00,VALID,918.362,VALID,0,VALID,100,VALID,-0.0849042,VALID,19.0743,VALID,42,VALID,0.107813,
2004-06-07, 00:17:00,VALID,918.361,VALID,0,VALID,100,VALID,-0.101885,VALID,19.0805,VALID,42,VALID,0,
2004-06-07, 00:18:00,VALID,918.345,VALID,0,VALID,100,VALID,-0.101885,VALID,19.087,VALID,42,VALID,0,
2004-06-07, 00:19:00,VALID,918.337,VALID,0,VALID,100,VALID,-0.101885,VALID,19.0969,VALID,42,VALID,0,
2004-06-07, 00:20:00,VALID,918.323,VALID,0,VALID,100,VALID,-0.0339617,VALID,19.0666,VALID,42,VALID,0,
2004-06-07, 00:21:00,VALID,918.298,VALID,0,VALID,100,VALID,0,VALID,19.0334,VALID,42,VALID,0,
2004-06-07, 00:22:00,VALID,918.28,VALID,0,VALID,100,VALID,-0.0339617,VALID,19.0567,VALID,42,VALID,0,
2004-06-07, 00:23:00,VALID,918.265,VALID,0,VALID,100,VALID,-0.0169808,VALID,19.0696,VALID,42,VALID,0,
2004-06-07, 00:24:00,VALID,918.271,VALID,0,VALID,100,VALID,0,VALID,19.0664,VALID,42,VALID,0,
2004-06-07, 00:25:00,VALID,918.272,VALID,0,VALID,100,VALID,0,VALID,19.0634,VALID,42,VALID,0,
2004-06-07, 00:26:00,VALID,918.265,VALID,0,VALID,100,VALID,0,VALID,19.0438,VALID,42,VALID,0,
2004-06-07, 00:27:00,VALID,918.267,VALID,0,VALID,100,VALID,-0.0169808,VALID,19.0339,VALID,42,VALID,0.303013,
2004-06-07, 00:28:00,VALID,918.249,VALID,0,VALID,100,VALID,0,VALID,19.0502,VALID,42,VALID,0.25799,
2004-06-07, 00:29:00,VALID,918.236,VALID,0,VALID,100,VALID,0,VALID,19.0567,VALID,42,VALID,0.127477,
2004-06-07, 00:30:00,VALID,918.179,VALID,0,VALID,100,VALID,0,VALID,19.0339,VALID,42,VALID,0.161458,
2004-06-07, 00:31:00,VALID,918.135,VALID,0,VALID,100,VALID,0.0339617,VALID,19.0212,VALID,42,VALID,0.359566,
2004-06-07, 00:32:00,VALID,918.104,VALID,0,VALID,100,VALID,0,VALID,19.0016,VALID,42,VALID,0.496094,
2004-06-07, 00:33:00,VALID,918.081,VALID,0,VALID,100,VALID,0,VALID,18.9919,VALID,50,VALID,0.636719,
2004-06-07, 00:34:00,VALID,918.051,VALID,0,VALID,100,VALID,0.0169808,VALID,18.9785,VALID,60,VALID,0.59282,
2004-06-07, 00:35:00,VALID,918.037,VALID,0,VALID,100,VALID,-0.0679233,VALID,18.9769,VALID,71,VALID,0.553199,
2004-06-07, 00:36:00,VALID,918.036,VALID,0,VALID,100,VALID,-0.101885,VALID,18.9836,VALID,99,VALID,0.501817,
2004-06-07, 00:37:00,VALID,918.045,VALID,0,VALID,100,VALID,-0.101885,VALID,18.9836,VALID,102,VALID,0.490473,
2004-06-07, 00:38:00,VALID,918.044,VALID,0,VALID,100,VALID,-0.0849042,VALID,19.0003,VALID,105,VALID,0.547075,
2004-06-07, 00:39:00,VALID,918.052,VALID,0,VALID,100,VALID,-0.101885,VALID,19.0099,VALID,105,VALID,0.458576,
2004-06-07, 00:40:00,VALID,918.066,VALID,0,VALID,100,VALID,-0.0849042,VALID,19.003,VALID,105,VALID,0.512649,
2004-06-07, 00:41:00,VALID,918.064,VALID,0,VALID,100,VALID,-0.0849042,VALID,19.003,VALID,112,VALID,0.689787,
2004-06-07, 00:42:00,VALID,918.053,VALID,0,VALID,100,VALID,-0.135847,VALID,19.0003,VALID,116,VALID,0.97202,
2004-06-07, 00:43:00,VALID,918.048,VALID,0,VALID,100,VALID,-0.101885,VALID,18.9903,VALID,116,VALID,1.09928,
2004-06-07, 00:44:00,VALID,918.036,VALID,0,VALID,100,VALID,-0.101885,VALID,18.9774,VALID,114,VALID,0.796875,
2004-06-07, 00:45:00,VALID,918.028,VALID,0,VALID,100,VALID,-0.101885,VALID,18.9876,VALID,117,VALID,0.832849,
2004-06-07, 00:46:00,VALID,918.012,VALID,0,VALID,100,VALID,-0.101885,VALID,18.9707,VALID,137,VALID,0.744913,
2004-06-07, 00:47:00,VALID,917.996,VALID,0,VALID,100,VALID,-0.101885,VALID,18.9643,VALID,144,VALID,0.800481,
2004-06-07, 00:48:00,VALID,917.966,VALID,0,VALID,100,VALID,-0.101885,VALID,18.9613,VALID,142,VALID,0.432091,
2004-06-07, 00:49:00,VALID,917.942,VALID,0,VALID,100,VALID,-0.101885,VALID,18.9513,VALID,136,VALID,0.598544,
2004-06-07, 00:50:00,VALID,917.927,VALID,0,VALID,100,VALID,0,VALID,18.931,VALID,132,VALID,0.618862,
2004-06-07, 00:51:00,VALID,917.905,VALID,0,VALID,100,VALID,0,VALID,18.9243,VALID,132,VALID,0.319973,
2004-06-07, 00:52:00,VALID,917.877,VALID,0,VALID,100,VALID,0.0169808,VALID,18.9112,VALID,132,VALID,0.631324,
2004-06-07, 00:53:00,VALID,917.858,VALID,0,VALID,100,VALID,-0.0169808,VALID,18.9017,VALID,131,VALID,0.652439,
2004-06-07, 00:54:00,VALID,917.84,VALID,0,VALID,100,VALID,0.0169808,VALID,18.8953,VALID,128,VALID,0.782986,
2004-06-07, 00:55:00,VALID,917.813,VALID,0,VALID,100,VALID,0,VALID,18.8824,VALID,127,VALID,0.604403,
2004-06-07, 00:56:00,VALID,917.797,VALID,0,VALID,100,VALID,0,VALID,18.8791,VALID,135,VALID,0.796503,
2004-06-07, 00:57:00,VALID,917.768,VALID,0,VALID,100,VALID,0,VALID,18.8657,VALID,137,VALID,0.92951,
2004-06-07, 00:58:00,VALID,917.759,VALID,0,VALID,100,VALID,0,VALID,18.8531,VALID,141,VALID,0.943004,
2004-06-07, 00:59:00,VALID,917.754,VALID,0,VALID,100,VALID,0,VALID,18.8434,VALID,142,VALID,1.03716,
2004-06-07, 01:00:00,VALID,917.743,VALID,0,VALID,100,VALID,-0.0169808,VALID,18.8404,VALID,127,VALID,1.04669,
2004-06-07, 01:01:00,VALID,917.748,VALID,0,VALID,100,VALID,0.0169808,VALID,18.8242,VALID,122,VALID,0.784268,
2004-06-07, 01:02:00,VALID,917.739,VALID,0,VALID,100,VALID,-0.0169808,VALID,18.8046,VALID,124,VALID,0.973958,
2004-06-07, 01:03:00,VALID,917.734,VALID,0,VALID,100,VALID,0,VALID,18.8053,VALID,125,VALID,1.24055,
2004-06-07, 01:04:00,VALID,917.748,VALID,0,VALID,100,VALID,0.0169808,VALID,18.7922,VALID,98,VALID,1.10636,
2004-06-07, 01:05:00,VALID,917.75,VALID,0,VALID,100,VALID,-0.0169808,VALID,18.7823,VALID,85,VALID,0.948539,
2004-06-07, 01:06:00,VALID,917.751,VALID,0,VALID,100,VALID,0.0169808,VALID,18.7793,VALID,88,VALID,0.907522,
2004-06-07, 01:07:00,VALID,917.742,VALID,0,VALID,100,VALID,-0.0169808,VALID,18.7857,VALID,126,VALID,1.00709,
2004-06-07, 01:08:00,VALID,917.72,VALID,0,VALID,100,VALID,0,VALID,18.7788,VALID,121,VALID,1.15854,
2004-06-07, 01:09:00,VALID,917.694,VALID,0,VALID,100,VALID,0.0169808,VALID,18.7758,VALID,119,VALID,1.14933,
2004-06-07, 01:10:00,VALID,917.667,VALID,0,VALID,100,VALID,0,VALID,18.7795,VALID,112,VALID,1.23349,
2004-06-07, 01:11:00,VALID,917.647,VALID,0,VALID,100,VALID,0,VALID,18.7758,VALID,108,VALID,1.40439,
2004-06-07, 01:12:00,VALID,917.612,VALID,0,VALID,100,VALID,0,VALID,18.786,VALID,110,VALID,1.19401,
2004-06-07, 01:13:00,VALID,917.6,VALID,0,VALID,100,VALID,0,VALID,18.792,VALID,105,VALID,1.33133,
2004-06-07, 01:14:00,VALID,917.581,VALID,0,VALID,100,VALID,0,VALID,18.7798,VALID,100,VALID,1.11076,
2004-06-07, 01:15:00,VALID,917.58,VALID,0,VALID,100,VALID,-0.0339617,VALID,18.7954,VALID,114,VALID,1.39244,
2004-06-07, 01:16:00,VALID,917.588,VALID,0,VALID,100,VALID,0,VALID,18.8053,VALID,130,VALID,1.37928,
2004-06-07, 01:17:00,VALID,917.595,VALID,0,VALID,100,VALID,-0.0169808,VALID,18.8086,VALID,121,VALID,1.2445,
2004-06-07, 01:18:00,VALID,917.614,VALID,0,VALID,100,VALID,0.0169808,VALID,18.8049,VALID,124,VALID,1.36164,
2004-06-07, 01:19:00,VALID,917.626,VALID,0,VALID,100,VALID,0,VALID,18.818,VALID,112,VALID,0.808685,
2004-06-07, 01:20:00,VALID,917.628,VALID,0,VALID,100,VALID,-0.0339617,VALID,18.8083,VALID,116,VALID,0.649528,
2004-06-07, 01:21:00,VALID,917.621,VALID,0,VALID,100,VALID,0,VALID,18.8146,VALID,129,VALID,0.72247,
2004-06-07, 01:22:00,VALID,917.617,VALID,0,VALID,100,VALID,0,VALID,18.8081,VALID,125,VALID,0.256098,
2004-06-07, 01:23:00,VALID,917.604,VALID,0,VALID,100,VALID,0.0169808,VALID,18.7987,VALID,125,VALID,0.453299,
2004-06-07, 01:24:00,VALID,917.602,VALID,0,VALID,100,VALID,-0.0169808,VALID,18.8053,VALID,101,VALID,0.731027,
2004-06-07, 01:25:00,VALID,917.592,VALID,0,VALID,100,VALID,0,VALID,18.7917,VALID,89,VALID,0.715892,
2004-06-07, 01:26:00,VALID,917.597,VALID,0,VALID,100,VALID,0,VALID,18.7825,VALID,72,VALID,0.893709,
2004-06-07, 01:27:00,VALID,917.612,VALID,0,VALID,100,VALID,-0.0169808,VALID,18.7857,VALID,73,VALID,0.373397,
2004-06-07, 01:28:00,VALID,917.622,VALID,0,VALID,100,VALID,0,VALID,18.7954,VALID,100,VALID,0.682355,
2004-06-07, 01:29:00,VALID,917.628,VALID,0,VALID,100,VALID,-0.0169808,VALID,18.8058,VALID,107,VALID,0.863467,
2004-06-07, 01:30:01,VALID,917.635,VALID,0,VALID,100,VALID,-0.0169808,VALID,18.7984,VALID,110,VALID,1.04347,
2004-06-07, 01:31:01,VALID,917.639,VALID,0,VALID,100,VALID,0,VALID,18.7795,VALID,79,VALID,1.17782,
2004-06-07, 01:32:00,VALID,917.645,VALID,0,VALID,100,VALID,0,VALID,18.7604,VALID,93,VALID,1.30596,
2004-06-07, 01:33:00,VALID,917.666,VALID,0,VALID,100,VALID,0.0169808,VALID,18.7761,VALID,129,VALID,1.57927,
2004-06-07, 01:34:01,VALID,917.679,VALID,0,VALID,100,VALID,0,VALID,18.7987,VALID,131,VALID,1.33794,
2004-06-07, 01:35:01,VALID,917.669,VALID,0,VALID,100,VALID,0,VALID,18.812,VALID,146,VALID,1.07431,
2004-06-07, 01:36:01,VALID,917.672,VALID,0,VALID,100,VALID,0,VALID,18.8123,VALID,127,VALID,0.941778,
2004-06-07, 01:37:00,VALID,917.672,VALID,0,VALID,100,VALID,-0.0339617,VALID,18.8056,VALID,90,VALID,0.850632,
2004-06-07, 01:38:00,VALID,917.664,VALID,0,VALID,100,VALID,-0.0169808,VALID,18.7954,VALID,50,VALID,1.13142,
2004-06-07, 01:39:00,VALID,917.648,VALID,0,VALID,100,VALID,0,VALID,18.8021,VALID,81,VALID,1.5332,
2004-06-07, 01:40:01,VALID,917.646,VALID,0,VALID,100,VALID,0,VALID,18.818,VALID,121,VALID,1.87148,
2004-06-07, 01:41:00,VALID,917.665,VALID,0,VALID,100,VALID,0,VALID,18.8667,VALID,155,VALID,0.980469,
2004-06-07, 01:42:00,VALID,917.664,VALID,0,VALID,100,VALID,0,VALID,18.8923,VALID,150,VALID,1.09847,
2004-06-07, 01:43:01,VALID,917.664,VALID,0,VALID,100,VALID,0,VALID,18.9022,VALID,116,VALID,1.22656,
2004-06-07, 01:44:00,VALID,917.657,VALID,0,VALID,100,VALID,-0.0169808,VALID,18.9154,VALID,130,VALID,1.13881,
2004-06-07, 01:45:01,VALID,917.669,VALID,0,VALID,100,VALID,-0.0339617,VALID,18.9151,VALID,125,VALID,0.992361,
2004-06-07, 01:46:00,VALID,917.663,VALID,0,VALID,100,VALID,-0.0169808,VALID,18.9218,VALID,141,VALID,0.734557,
2004-06-07, 01:47:00,VALID,917.649,VALID,0,VALID,100,VALID,-0.0169808,VALID,18.9082,VALID,145,VALID,0.361281,
2004-06-07, 01:48:00,VALID,917.639,VALID,0,VALID,100,VALID,-0.0169808,VALID,18.9116,VALID,135,VALID,0.541667,
2004-06-07, 01:49:00,VALID,917.611,VALID,0,VALID,100,VALID,-0.0169808,VALID,18.9216,VALID,121,VALID,0.882254,
2004-06-07, 01:50:00,VALID,917.596,VALID,0,VALID,100,VALID,0.0339617,VALID,18.9221,VALID,110,VALID,0.546689,
2004-06-07, 01:51:01,VALID,917.564,VALID,0,VALID,100,VALID,0,VALID,18.9412,VALID,100,VALID,0.662919,
2004-06-07, 01:52:00,VALID,917.522,VALID,0,VALID,100,VALID,0.0169808,VALID,18.9248,VALID,94,VALID,1.06016,
2004-06-07, 01:53:00,VALID,917.498,VALID,0,VALID,100,VALID,0,VALID,18.9221,VALID,96,VALID,0.93423,
2004-06-07, 01:54:01,VALID,917.484,VALID,0,VALID,100,VALID,0.0339617,VALID,18.9151,VALID,120,VALID,1.21689,
2004-06-07, 01:55:00,VALID,917.468,VALID,0,VALID,100,VALID,0.0169808,VALID,18.9211,VALID,141,VALID,1.31747,
2004-06-07, 01:56:01,VALID,917.473,VALID,0,VALID,100,VALID,0,VALID,18.9541,VALID,159,VALID,0.749428,
2004-06-07, 01:57:00,VALID,917.481,VALID,0,VALID,100,VALID,0.0169808,VALID,18.9566,VALID,140,VALID,0.813244,
2004-06-07, 01:58:00,VALID,917.494,VALID,0,VALID,100,VALID,0,VALID,18.9665,VALID,124,VALID,0.822129,
2004-06-07, 01:59:01,VALID,917.501,VALID,0,VALID,100,VALID,0.0509425,VALID,18.9698,VALID,133,VALID,0.861914,
2004-06-07, 02:00:01,VALID,917.473,VALID,0,VALID,100,VALID,0,VALID,18.9702,VALID,109,VALID,1.22834,
2004-06-07, 02:01:00,VALID,917.466,VALID,0,VALID,100,VALID,0,VALID,18.9765,VALID,97,VALID,1.05051,
2004-06-07, 02:02:00,VALID,917.457,VALID,0,VALID,100,VALID,0.0339617,VALID,18.9765,VALID,101,VALID,1.01864,
2004-06-07, 02:03:01,VALID,917.429,VALID,0,VALID,100,VALID,0,VALID,18.9834,VALID,99,VALID,1.19851,
2004-06-07, 02:04:00,VALID,917.418,VALID,0,VALID,100,VALID,0.0169808,VALID,18.9891,VALID,106,VALID,1.2074,
2004-06-07, 02:05:00,VALID,917.417,VALID,0,VALID,100,VALID,-0.0509425,VALID,19.0025,VALID,119,VALID,0.905134,
2004-06-07, 02:06:00,VALID,917.416,VALID,0,VALID,100,VALID,-0.0509425,VALID,19.0263,VALID,83,VALID,1.31632,
2004-06-07, 02:07:01,VALID,917.453,VALID,0,VALID,100,VALID,-0.0849042,VALID,19.039,VALID,81,VALID,1.03795,
2004-06-07, 02:08:00,VALID,917.475,VALID,0,VALID,99.9667,VALID,-0.0679233,VALID,19.0492,VALID,109,VALID,0.804688,
2004-06-07, 02:09:00,VALID,917.474,VALID,0,VALID,99.8655,VALID,-0.0509425,VALID,19.039,VALID,114,VALID,0.607088,
2004-06-07, 02:10:01,VALID,917.456,VALID,0,VALID,99.7561,VALID,-0.0679233,VALID,19.0455,VALID,91,VALID,0.277158,
2004-06-07, 02:11:00,VALID,917.469,VALID,0,VALID,99.6658,VALID,-0.101885,VALID,19.0487,VALID,95,VALID,0.461979,
2004-06-07, 02:12:00,VALID,917.442,VALID,0,VALID,99.5755,VALID,-0.0169808,VALID,19.042,VALID,80,VALID,0.327762,
2004-06-07, 02:13:00,VALID,917.416,VALID,0,VALID,99.587,VALID,-0.0509425,VALID,19.0584,VALID,84,VALID,0.383523,
2004-06-07, 02:14:01,VALID,917.387,VALID,0,VALID,99.6022,VALID,-0.0169808,VALID,19.0648,VALID,127,VALID,0.591206,
2004-06-07, 02:15:01,VALID,917.353,VALID,0,VALID,99.6251,VALID,-0.0679233,VALID,19.0646,VALID,142,VALID,0.750533,
2004-06-07, 02:16:00,VALID,917.314,VALID,0,VALID,99.6518,VALID,-0.0509425,VALID,19.0581,VALID,119,VALID,1.02653,
2004-06-07, 02:17:00,VALID,917.286,VALID,0,VALID,99.7192,VALID,-0.0679233,VALID,19.0452,VALID,60,VALID,1.08031,
2004-06-07, 02:18:00,VALID,917.263,VALID,0,VALID,99.7396,VALID,-0.0339617,VALID,19.0325,VALID,41,VALID,1.19673,
2004-06-07, 02:19:00,VALID,917.248,VALID,0,VALID,99.7752,VALID,-0.0509425,VALID,19.0129,VALID,55,VALID,1.19438,
2004-06-07, 02:20:00,VALID,917.237,VALID,0,VALID,99.8159,VALID,-0.0509425,VALID,18.9896,VALID,77,VALID,0.9875,
2004-06-07, 02:21:00,VALID,917.217,VALID,0,VALID,99.793,VALID,-0.0509425,VALID,18.9871,VALID,79,VALID,1.30327,
2004-06-07, 02:22:00,VALID,917.206,VALID,0,VALID,99.8286,VALID,-0.0509425,VALID,18.9968,VALID,60,VALID,1.20008,
2004-06-07, 02:23:00,VALID,917.195,VALID,0,VALID,99.6646,VALID,-0.0169808,VALID,18.9903,VALID,68,VALID,1.02381,
2004-06-07, 02:24:00,VALID,917.185,VALID,0,VALID,99.4229,VALID,-0.0849042,VALID,18.9739,VALID,70,VALID,0.643102,
2004-06-07, 02:25:01,VALID,917.164,VALID,0,VALID,99.306,VALID,-0.0849042,VALID,18.9871,VALID,68,VALID,0.564024,
2004-06-07, 02:26:01,VALID,917.153,VALID,0,VALID,99.3034,VALID,-0.0679233,VALID,19.0162,VALID,49,VALID,0.865234,
2004-06-07, 02:27:00,VALID,917.144,VALID,0,VALID,99.236,VALID,0,VALID,19.0189,VALID,63,VALID,0.859553,
2004-06-07, 02:28:00,VALID,917.153,VALID,0,VALID,99.1343,VALID,-0.0509425,VALID,19.0058,VALID,78,VALID,1.03423,
2004-06-07, 02:29:01,VALID,917.131,VALID,0,VALID,99.0923,VALID,-0.0339617,VALID,19.0032,VALID,95,VALID,1.04433,
2004-06-07, 02:30:00,VALID,917.127,VALID,0,VALID,99.0211,VALID,-0.0679233,VALID,19.0077,VALID,100,VALID,1.12891,
2004-06-07, 02:31:00,VALID,917.129,VALID,0,VALID,98.9715,VALID,-0.0339617,VALID,18.9938,VALID,106,VALID,0.896205,
2004-06-07, 02:32:00,VALID,917.127,VALID,0,VALID,99.1012,VALID,-0.0849042,VALID,18.997,VALID,110,VALID,0.698509,
2004-06-07, 02:33:01,VALID,917.124,VALID,0,VALID,99.0135,VALID,-0.0509425,VALID,18.9965,VALID,106,VALID,0.853561,
2004-06-07, 02:34:00,VALID,917.115,VALID,0,VALID,99.0237,VALID,-0.0339617,VALID,19.0005,VALID,109,VALID,0.565407,
2004-06-07, 02:35:01,VALID,917.104,VALID,0,VALID,99.0758,VALID,-0.0339617,VALID,18.9961,VALID,109,VALID,0.462612,
2004-06-07, 02:36:00,VALID,917.089,VALID,0,VALID,99.1216,VALID,0.0339617,VALID,18.9924,VALID,110,VALID,0.214753,
2004-06-07, 02:37:01,VALID,917.076,VALID,0,VALID,99.1737,VALID,0.0169808,VALID,18.9894,VALID,110,VALID,0.00679348,
2004-06-07, 02:38:01,VALID,917.066,VALID,0,VALID,99.0974,VALID,0.0679233,VALID,18.9829,VALID,110,VALID,0.407227,
2004-06-07, 02:39:00,VALID,917.04,VALID,0,VALID,99.0669,VALID,0.0339617,VALID,18.9834,VALID,110,VALID,0.207485,
2004-06-07, 02:40:01,VALID,917.014,VALID,0,VALID,99.0249,VALID,0.0509425,VALID,18.9534,VALID,85,VALID,0.397727,
2004-06-07, 02:41:00,VALID,917.008,VALID,0,VALID,99.03,VALID,0.0339617,VALID,18.9598,VALID,55,VALID,0.391768,
2004-06-07, 02:42:00,VALID,916.992,VALID,0,VALID,99.044,VALID,0.101885,VALID,18.9594,VALID,40,VALID,0.536458,
2004-06-07, 02:43:00,VALID,916.988,VALID,0,VALID,99.0249,VALID,0.0679233,VALID,18.9598,VALID,38,VALID,0.461115,
2004-06-07, 02:44:01,VALID,916.976,VALID,0,VALID,98.9512,VALID,0.0339617,VALID,18.9439,VALID,46,VALID,0.656622,
2004-06-07, 02:45:01,VALID,916.978,VALID,0,VALID,98.8622,VALID,0.0509425,VALID,18.9243,VALID,68,VALID,0.821584,
2004-06-07, 02:46:00,VALID,916.987,VALID,0,VALID,98.838,VALID,0.0509425,VALID,18.9146,VALID,71,VALID,0.995821,
2004-06-07, 02:47:00,VALID,916.994,VALID,0,VALID,98.8812,VALID,0.0509425,VALID,18.9109,VALID,50,VALID,0.924055,
2004-06-07, 02:48:01,VALID,917.03,VALID,0,VALID,98.8914,VALID,0.0339617,VALID,18.8856,VALID,60,VALID,1.48715,
2004-06-07, 02:49:00,VALID,917.055,VALID,0,VALID,98.9906,VALID,0.0679233,VALID,18.8694,VALID,47,VALID,1.32369,
2004-06-07, 02:50:00,VALID,917.049,VALID,0,VALID,99.0783,VALID,-0.0509425,VALID,18.8575,VALID,50,VALID,1.16139,
2004-06-07, 02:51:00,VALID,917.047,VALID,0,VALID,99.105,VALID,-0.0849042,VALID,18.842,VALID,51,VALID,1.23514,
2004-06-07, 02:52:00,VALID,917.04,VALID,0,VALID,99.1521,VALID,-0.101885,VALID,18.8224,VALID,64,VALID,1.18979,
2004-06-07, 02:53:00,VALID,917.007,VALID,0,VALID,99.1381,VALID,-0.0849042,VALID,18.8128,VALID,89,VALID,1.0484,
2004-06-07, 02:54:00,VALID,916.985,VALID,0,VALID,99.1623,VALID,-0.0679233,VALID,18.7968,VALID,46,VALID,0.645712,
2004-06-07, 02:55:01,VALID,916.972,VALID,0,VALID,99.2144,VALID,-0.0849042,VALID,18.7805,VALID,39,VALID,0.576823,
2004-06-07, 02:56:00,VALID,916.969,VALID,0,VALID,99.2513,VALID,-0.101885,VALID,18.768,VALID,43,VALID,0.141555,
2004-06-07, 02:57:01,VALID,916.961,VALID,0,VALID,99.2971,VALID,-0.0679233,VALID,18.7551,VALID,43,VALID,0.0530523,
2004-06-07, 02:58:00,VALID,916.968,VALID,0,VALID,99.3327,VALID,-0.0679233,VALID,18.7516,VALID,43,VALID,0,
2004-06-07, 02:59:00,VALID,916.987,VALID,0,VALID,99.3441,VALID,-0.0849042,VALID,18.7357,VALID,43,VALID,0.00109012,
2004-06-07, 03:00:00,VALID,917.009,VALID,0,VALID,99.4051,VALID,-0.0679233,VALID,18.7094,VALID,44,VALID,0.399219,
2004-06-07, 03:01:01,VALID,917.014,VALID,0,VALID,99.5374,VALID,-0.101885,VALID,18.7196,VALID,91,VALID,0.616642,
2004-06-07, 03:02:01,VALID,917.02,VALID,0,VALID,99.6785,VALID,-0.0849042,VALID,18.7194,VALID,102,VALID,0.999047,
2004-06-07, 03:03:01,VALID,917.034,VALID,0,VALID,99.6887,VALID,-0.118866,VALID,18.729,VALID,103,VALID,1.09211,
2004-06-07, 03:04:01,VALID,917.018,VALID,0,VALID,99.6391,VALID,-0.101885,VALID,18.7295,VALID,104,VALID,0.841206,
2004-06-07, 03:05:01,VALID,917.028,VALID,0,VALID,99.6582,VALID,0,VALID,18.7256,VALID,115,VALID,0.823331,
2004-06-07, 03:06:00,VALID,917.014,VALID,0,VALID,99.7192,VALID,0,VALID,18.7117,VALID,121,VALID,0.86875,
2004-06-07, 03:07:00,VALID,916.997,VALID,0,VALID,99.7167,VALID,0,VALID,18.7182,VALID,124,VALID,0.385156,
2004-06-07, 03:08:00,VALID,916.997,VALID,0,VALID,99.7218,VALID,0.0169808,VALID,18.708,VALID,133,VALID,0.411204,
2004-06-07, 03:09:01,VALID,916.992,VALID,0,VALID,99.7218,VALID,0,VALID,18.708,VALID,147,VALID,0.330305,
2004-06-07, 03:10:00,VALID,916.988,VALID,0,VALID,99.7256,VALID,0.0169808,VALID,18.7115,VALID,147,VALID,0.198828,
2004-06-07, 03:11:00,VALID,916.988,VALID,0,VALID,99.69,VALID,0,VALID,18.7018,VALID,143,VALID,0.491461,
2004-06-07, 03:12:01,VALID,916.97,VALID,0,VALID,99.6709,VALID,0,VALID,18.6926,VALID,121,VALID,0.858648,
2004-06-07, 03:13:01,VALID,916.967,VALID,0,VALID,99.5425,VALID,0.0169808,VALID,18.6961,VALID,117,VALID,0.960379,
2004-06-07, 03:14:01,VALID,916.975,VALID,0,VALID,99.3899,VALID,0.0169808,VALID,18.7055,VALID,116,VALID,0.724746,
2004-06-07, 03:15:01,VALID,916.967,VALID,0,VALID,99.2411,VALID,0.0169808,VALID,18.702,VALID,116,VALID,0.283381,
2004-06-07, 03:16:01,VALID,916.963,VALID,0,VALID,99.1864,VALID,0,VALID,18.7212,VALID,116,VALID,0.313834,
2004-06-07, 03:17:01,VALID,916.983,VALID,0,VALID,99.1941,VALID,0,VALID,18.7281,VALID,115,VALID,0.364879,
2004-06-07, 03:18:00,VALID,916.979,VALID,0,VALID,99.2004,VALID,0,VALID,18.7251,VALID,67,VALID,0.419085,
2004-06-07, 03:19:00,VALID,916.991,VALID,0,VALID,99.2233,VALID,0,VALID,18.6958,VALID,66,VALID,0.483041,
2004-06-07, 03:20:00,VALID,917.004,VALID,0,VALID,99.2818,VALID,0,VALID,18.6831,VALID,46,VALID,0.469105,
2004-06-07, 03:21:01,VALID,917.04,VALID,0,VALID,99.3556,VALID,0,VALID,18.6635,VALID,27,VALID,0.695685,
2004-06-07, 03:22:01,VALID,917.059,VALID,0,VALID,99.4013,VALID,0,VALID,18.6605,VALID,11,VALID,0.711111,
2004-06-07, 03:23:01,VALID,917.091,VALID,0,VALID,99.4369,VALID,0.0169808,VALID,18.6504,VALID,340,VALID,0.982195,
2004-06-07, 03:24:01,VALID,917.109,VALID,0,VALID,99.4001,VALID,0,VALID,18.6375,VALID,360,VALID,1.05952,
2004-06-07, 03:25:01,VALID,917.108,VALID,0,VALID,99.395,VALID,0,VALID,18.6181,VALID,1,VALID,1.09837,
2004-06-07, 03:26:01,VALID,917.095,VALID,0,VALID,99.4166,VALID,0,VALID,18.6213,VALID,3,VALID,0.68423,
2004-06-07, 03:27:01,VALID,917.093,VALID,0,VALID,99.4369,VALID,0.0509425,VALID,18.6213,VALID,344,VALID,0.831287,
2004-06-07, 03:28:01,VALID,917.077,VALID,0,VALID,99.4942,VALID,0,VALID,18.6216,VALID,341,VALID,0.529762,
2004-06-07, 03:29:01,VALID,917.057,VALID,0,VALID,99.5641,VALID,0,VALID,18.6278,VALID,346,VALID,0.280678,
2004-06-07, 03:30:01,VALID,917.05,VALID,0,VALID,99.6188,VALID,0,VALID,18.631,VALID,347,VALID,0.330729,
2004-06-07, 03:31:01,VALID,917.056,VALID,0,VALID,99.6747,VALID,0,VALID,18.634,VALID,347,VALID,0.147675,
2004-06-07, 03:32:01,VALID,917.059,VALID,0,VALID,99.7269,VALID,0,VALID,18.6276,VALID,347,VALID,0.0568182,
2004-06-07, 03:33:01,VALID,917.065,VALID,0,VALID,99.737,VALID,-0.0169808,VALID,18.635,VALID,347,VALID,0,
2004-06-07, 03:34:01,VALID,917.068,VALID,0,VALID,99.7459,VALID,0.0169808,VALID,18.6317,VALID,347,VALID,0.043064,
2004-06-07, 03:35:01,VALID,917.068,VALID,0,VALID,99.8095,VALID,0,VALID,18.6181,VALID,347,VALID,0.0243676,
2004-06-07, 03:36:01,VALID,917.066,VALID,0,VALID,99.8731,VALID,-0.0169808,VALID,18.6216,VALID,347,VALID,0.0379464,
2004-06-07, 03:37:01,VALID,917.063,VALID,0,VALID,99.9329,VALID,0.0169808,VALID,18.6246,VALID,347,VALID,0.288504,
2004-06-07, 03:38:01,VALID,917.07,VALID,0,VALID,99.9532,VALID,0,VALID,18.6347,VALID,347,VALID,0.0899346,
2004-06-07, 03:39:01,VALID,917.072,VALID,0,VALID,99.957,VALID,0.0339617,VALID,18.6287,VALID,347,VALID,0.00628811,